This demonstration page uses our WeatherBlox Daily Observations layout. Learn more.

Left ArrowRight Arrow

34.02893, -84.19858

Hourly Observations for February 28, 2021

Temp ( °F °C ) Dew Point ( °F °C ) Humidity (%) Winds ( mph kmh ) Pressure ( in mb ) Visibility ( mi km ) Precip ( " mm )
12:53 am 00:53 Clear 56 13.3 54 12.2 93 93 ESE 5 7 30.18 1022 7 11 0.00 0.00
1:53 am 01:53 Mostly Cloudy 55 12.8 54 12.2 96 96 Calm 30.17 1022 7 11 0.00 0.00
2:53 am 02:53 Clear with Mist and Fog 54 12.2 53 11.7 97 97 Calm 30.16 1021 6 10 0.00 0.00
3:53 am 03:53 Clear with Mist and Fog 54 12.2 53 11.7 97 97 Calm 30.14 1021 5 8 0.00 0.00
4:53 am 04:53 Partly Cloudy with Mist and Fog 52 11.1 52 11.1 100 100 Calm 30.14 1021 5 8 0.00 0.00
5:44 am 05:44 Clear with Mist and Fog 52 11.1 52 11.1 100 100 Calm 30.16 1021 2 3 0.00 0.00
5:53 am 05:53 Clear with Fog 50 10 50 10 100 100 Calm 30.14 1021 1 1 0.00 0.00
5:58 am 05:58 Mostly Cloudy with Mist and Fog 50 10 50 10 100 100 Calm 30.15 1021 1 1 0.00 0.00
6:09 am 06:09 Mostly Cloudy with Mist and Fog 52 11.1 52 11.1 100 100 Calm 30.15 1021 2 3 0.00 0.00
6:17 am 06:17 Mostly Cloudy with Mist and Fog 53 11.7 53 11.7 100 100 Calm 30.15 1021 4 6 0.00 0.00
6:53 am 06:53 Cloudy with Mist and Fog 54 12.2 54 12.2 100 100 Calm 30.15 1021 5 8 0.00 0.00
7:25 am 07:25 Cloudy with Mist and Fog 54 12.2 54 12.2 100 100 Calm 30.16 1021 3 4 0.00 0.00
7:37 am 07:37 Cloudy with Mist and Fog 54 12.2 54 12.2 100 100 Calm 30.17 1022 1 2 0.00 0.00
7:45 am 07:45 Cloudy with Mist and Fog 55 12.8 55 12.8 100 100 Calm 30.17 1022 1 1 0.00 0.00
7:53 am 07:53 Cloudy with Fog 55 12.8 55 12.8 100 100 SE 3 6 30.17 1022 1 1 0.00 0.00
8:00 am 08:00 Cloudy with Mist and Fog 55 12.8 55 12.8 100 100 SSE 5 7 30.17 1022 1 1 0.00 0.00
8:12 am 08:12 Cloudy with Mist and Fog 55 12.8 55 12.8 100 100 Calm 30.18 1022 1 2 0.00 0.00
8:34 am 08:34 Cloudy with Mist and Fog 56 13.3 56 13.3 100 100 SSE 5 7 30.18 1022 3 4 0.00 0.00
8:45 am 08:45 Cloudy with Mist and Fog 57 13.9 57 13.9 100 100 S 3 6 30.18 1022 2 2 0.00 0.00
8:53 am 08:53 Cloudy with Mist and Fog 58 14.4 58 14.4 100 100 S 3 6 30.18 1022 2 2 0.00 0.00
9:00 am 09:00 Cloudy with Mist and Fog 59 15 58 14.4 96 96 S 3 6 30.17 1022 4 6 0.00 0.00
9:25 am 09:25 Cloudy 61 16.1 59 15 93 93 S 3 6 30.16 1021 7 11 0.00 0.00
9:53 am 09:53 Cloudy 63 17.2 60 15.6 90 90 S 6 9 30.16 1021 9 14 0.00 0.00
10:26 am 10:26 Cloudy 64 17.8 60 15.6 87 87 SSW 10 17 30.15 1021 10 16 0.00 0.00
10:53 am 10:53 Cloudy 67 19.4 61 16.1 81 81 S 10 17 30.15 1021 10 16 0.00 0.00
11:18 am 11:18 Mostly Cloudy 68 20 61 16.1 78 78 S 10 17 30.13 1020 10 16 0.00 0.00
11:32 am 11:32 Partly Cloudy 69 20.6 61 16.1 76 76 S 15 24 30.12 1020 10 16 0.00 0.00
11:53 am 11:53 Partly Cloudy 70 21.1 61 16.1 73 73 S 10 17 30.12 1020 10 16 0.00 0.00
12:53 pm 12:53 Partly Cloudy 74 23.3 60 15.6 62 62 SSW 13 20 30.09 1019 10 16 0.00 0.00
1:53 pm 13:53 Mostly Cloudy 75 23.9 59 15 58 58 SW 20 31 30.05 1018 10 16 0.00 0.00
2:53 pm 14:53 Mostly Cloudy 76 24.4 58 14.4 54 54 SW 16 26 30.01 1016 10 16 0.00 0.00
3:53 pm 15:53 Cloudy 75 23.9 58 14.4 55 55 SSW 18 30 30.00 1016 10 16 0.00 0.00
4:53 pm 16:53 Mostly Cloudy 77 25 59 15 54 54 S 13 20 29.98 1015 10 16 0.00 0.00
5:53 pm 17:53 Partly Cloudy 74 23.3 58 14.4 57 57 S 12 19 29.98 1015 10 16 0.00 0.00
6:53 pm 18:53 Clear 72 22.2 58 14.4 61 61 S 10 17 29.98 1015 10 16 0.00 0.00
7:53 pm 19:53 Clear 70 21.1 59 15 68 68 S 7 11 29.98 1015 10 16 0.00 0.00
8:53 pm 20:53 Clear 68 20 59 15 73 73 SSW 8 13 29.98 1015 10 16 0.00 0.00
9:53 pm 21:53 Partly Cloudy 68 20 59 15 73 73 S 8 13 29.97 1015 10 16 0.00 0.00
10:53 pm 22:53 Clear 68 20 59 15 73 73 S 9 15 29.94 1014 10 16 0.00 0.00
11:53 pm 23:53 Clear 66 18.9 59 15 78 78 SSW 8 13 29.93 1014 10 16 0.00 0.00

Powered by AerisWeather